Location: The Saddle
(36.8333°N, 80.3417°W)
Time: 17:04:02
(UTC-05:00)

A-11 Canister half - Pass Details

Date: 16 December 2023
Orbit: 1512 x 1687 km, 47.2° (Epoch: 29 February)

Event Time Altitude Azimuth Distance (km) Brightness Sun altitude
Rises 04:53:50 0° 300° (WNW) 4,832 - -29.8°
Reaches altitude 10° 04:57:06 10° 294° (WNW) 3,867 - -29.2°
Exits shadow 05:04:50 42° 246° (WSW) 2,241 9.4 -27.7°
Maximum altitude 05:06:14 44° 227° (SW) 2,190 9.5 -27.4°
Drops below altitude 10° 05:15:34 10° 160° (SSE) 3,938 11.5 -25.6°
Sets 05:18:57 0° 154° (SSE) 4,928 12.2 -24.9°
